TimeAST,TemperatureF,Dew PointF,Humidity,Sea Level PressureIn,VisibilityMPH,Wind Direction,Wind SpeedMPH,Gust SpeedMPH,PrecipitationIn,Events,Conditions,WindDirDegrees,DateUTC
12:00 AM,59,51,67,30.20,6,WNW,3.5,,,,Haze,300,2014-01-14 21:00:00
12:00 AM,59.0,51.8,77,30.18,5.6,WNW,3.5,-,N/A,,Unknown,300,2014-01-14 21:00:00
1:00 AM,59.0,50.0,72,30.18,5.6,WNW,3.5,-,N/A,,Unknown,300,2014-01-14 22:00:00
2:00 AM,57.2,50.0,77,30.18,5.6,WSW,3.5,-,N/A,,Unknown,250,2014-01-14 23:00:00
3:00 AM,56,51,76,30.18,5,WSW,4.6,,,,Haze,240,2014-01-15 00:00:00
3:00 AM,55.4,50.0,82,30.15,5.0,WSW,4.6,-,N/A,,Unknown,240,2014-01-15 00:00:00
4:00 AM,55.4,50.0,82,30.15,4.3,WSW,4.6,-,N/A,,Unknown,250,2014-01-15 01:00:00
5:00 AM,55.4,51.8,88,30.18,3.1,West,3.5,-,N/A,,Haze,260,2014-01-15 02:00:00
6:00 AM,55,51,80,30.20,3,WSW,4.6,,,,Haze,240,2014-01-15 03:00:00
6:00 AM,55.4,50.0,82,30.18,3.1,WSW,4.6,-,N/A,,Haze,240,2014-01-15 03:00:00
6:30 AM,55.4,50.0,82,30.18,2.5,WSW,3.5,-,N/A,,Haze,250,2014-01-15 03:30:00
7:00 AM,55.4,50.0,82,30.18,2.2,WSW,3.5,-,N/A,,Haze,250,2014-01-15 04:00:00
7:30 AM,57.2,50.0,77,30.21,2.2,Variable,2.3,-,N/A,,Haze,0,2014-01-15 04:30:00
8:00 AM,59.0,50.0,72,30.21,2.2,West,3.5,-,N/A,,Haze,270,2014-01-15 05:00:00
9:00 AM,62,49,53,30.25,4,NW,6.9,,,,Haze,310,2014-01-15 06:00:00
9:30 AM,62.6,50.0,63,30.24,-9999.0,Variable,4.6,-,N/A,,Clear,0,2014-01-15 06:30:00
10:00 AM,64.4,50.0,59,30.24,-9999.0,NW,4.6,-,N/A,,Clear,310,2014-01-15 07:00:00
10:30 AM,64.4,50.0,59,30.21,-9999.0,NW,3.5,-,N/A,,Clear,320,2014-01-15 07:30:00
11:00 AM,66.2,48.2,52,30.21,-9999.0,North,4.6,-,N/A,,Clear,360,2014-01-15 08:00:00
11:30 AM,66.2,46.4,49,30.18,-9999.0,NW,4.6,-,N/A,,Clear,320,2014-01-15 08:30:00
12:00 PM,68,46,35,30.18,9,,5.8,,,,,,2014-01-15 09:00:00
12:00 PM,68.0,46.4,46,30.18,-9999.0,Variable,5.8,-,N/A,,Clear,0,2014-01-15 09:00:00
12:30 PM,68.0,46.4,46,30.15,-9999.0,NW,6.9,-,N/A,,Clear,310,2014-01-15 09:30:00
1:00 PM,68.0,46.4,46,30.15,-9999.0,WNW,6.9,-,N/A,,Clear,290,2014-01-15 10:00:00
1:30 PM,69.8,48.2,46,30.15,-9999.0,WNW,6.9,-,N/A,,Clear,290,2014-01-15 10:30:00
2:00 PM,69.8,46.4,43,30.15,-9999.0,West,4.6,-,N/A,,Clear,270,2014-01-15 11:00:00
2:30 PM,69.8,44.6,40,30.15,-9999.0,Variable,5.8,-,N/A,,Clear,0,2014-01-15 11:30:00
3:00 PM,70,46,30,30.17,7,NW,4.6,,,,,310,2014-01-15 12:00:00
3:00 PM,69.8,46.4,43,30.15,-9999.0,NW,4.6,-,N/A,,Clear,310,2014-01-15 12:00:00
4:00 PM,68.0,44.6,43,30.15,-9999.0,WNW,3.5,-,N/A,,Clear,300,2014-01-15 13:00:00
4:30 PM,68.0,44.6,43,30.15,-9999.0,WSW,3.5,-,N/A,,Clear,240,2014-01-15 13:30:00
5:00 PM,68.0,46.4,46,30.15,-9999.0,Variable,2.3,-,N/A,,Clear,0,2014-01-15 14:00:00
5:30 PM,64.4,51.8,64,30.18,-9999.0,SE,6.9,-,N/A,,Clear,130,2014-01-15 14:30:00
6:00 PM,64,53,58,30.19,7,SE,5.8,,,,Scattered Clouds,140,2014-01-15 15:00:00
6:00 PM,64.4,53.6,68,30.18,-9999.0,SE,5.8,-,N/A,,Clear,140,2014-01-15 15:00:00
6:30 PM,64.4,51.8,64,30.18,-9999.0,SE,5.8,-,N/A,,Clear,130,2014-01-15 15:30:00
7:00 PM,62.6,51.8,68,30.18,-9999.0,SSE,4.6,-,N/A,,Clear,150,2014-01-15 16:00:00
8:00 PM,62.6,51.8,68,30.21,-9999.0,SSW,3.5,-,N/A,,Clear,210,2014-01-15 17:00:00
9:00 PM,62,52,61,30.23,7,,2.3,,,,,,2014-01-15 18:00:00
9:00 PM,60.8,51.8,72,30.21,-9999.0,Variable,2.3,-,N/A,,Clear,0,2014-01-15 18:00:00
9:30 PM,60.8,51.8,72,30.21,-9999.0,Variable,2.3,-,N/A,,Clear,0,2014-01-15 18:30:00
10:00 PM,60.8,51.8,72,30.21,-9999.0,Calm,Calm,-,N/A,,Clear,0,2014-01-15 19:00:00
10:30 PM,59.0,51.8,77,30.21,-9999.0,Calm,Calm,-,N/A,,Clear,0,2014-01-15 19:30:00
11:00 PM,59.0,51.8,77,30.18,-9999.0,Calm,Calm,-,N/A,,Clear,0,2014-01-15 20:00:00
11:30 PM,59.0,51.8,77,30.18,-9999.0,Calm,Calm,-,N/A,,Clear,0,2014-01-15 20:30:00